| time (UTC) | temp F | wind direction | speed MPH | gust MPH | rain 1hr in | rain 24hr in | rain mn in | humidity % | barometer mb |
| 20260906083032 | 53 | 0 | 0.0 | 1.0 | 0.00 | 0.05 | 0.01 | 96 | 1015.0 |
| 20260906081534 | 54 | 0 | 0.0 | 0.0 | 0.00 | 0.05 | 0.01 | 96 | 1014.8 |
| 20260906080047 | 54 | 0 | 0.0 | 1.0 | 0.01 | 0.05 | 0.01 | 96 | 1014.7 |
| 20260906074534 | 55 | 0 | 0.0 | 1.0 | 0.01 | 0.05 | 0.01 | 96 | 1014.9 |
| 20260906073034 | 55 | 0 | 0.0 | 1.0 | 0.01 | 0.05 | 0.01 | 96 | 1014.5 |
| 20260906071532 | 54 | 0 | 0.0 | 1.0 | 0.01 | 0.05 | 0.01 | 96 | 1014.6 |
| 20260906070033 | 55 | 0 | 0.0 | 1.0 | 0.00 | 0.04 | 0.00 | 96 | 1014.6 |
| 20260906064536 | 55 | 0 | 0.0 | 1.0 | 0.00 | 0.04 | 0.00 | 96 | 1014.6 |
| 20260906063035 | 55 | 0 | 0.0 | 2.0 | 0.00 | 0.04 | 0.00 | 96 | 1014.6 |
| 20260906061538 | 55 | 0 | 0.0 | 0.0 | 0.00 | 0.04 | 0.00 | 96 | 1014.6 |
| 20260906060037 | 56 | 0 | 0.0 | 2.0 | 0.00 | 0.04 | 0.00 | 96 | 1014.5 |
| 20260906054533 | 56 | 144 | 0.0 | 2.0 | 0.00 | 0.05 | 0.00 | 96 | 1014.5 |
| 20260906053035 | 56 | 0 | 0.0 | 3.0 | 0.00 | 0.05 | 0.00 | 96 | 1014.7 |
| 20260906051534 | 56 | 144 | 0.0 | 2.0 | 0.00 | 0.05 | 0.00 | 95 | 1014.7 |
| 20260906050035 | 57 | 0 | 0.0 | 0.0 | 0.00 | 0.05 | 0.00 | 95 | 1014.8 |
| 20260906044535 | 57 | 0 | 0.0 | 0.0 | 0.00 | 0.05 | 0.00 | 95 | 1014.6 |
| 20260906043033 | 57 | 0 | 0.0 | 0.0 | 0.00 | 0.05 | 0.00 | 95 | 1014.6 |
| 20260906041541 | 57 | 0 | 0.0 | 0.0 | 0.00 | 0.05 | 0.00 | 95 | 1014.6 |
| 20260906040041 | 58 | 0 | 0.0 | 0.0 | 0.00 | 0.05 | 0.00 | 94 | 1014.7 |
| 20260906034535 | 58 | 0 | 0.0 | 0.0 | 0.00 | 0.05 | 0.05 | 94 | 1014.6 |
| 20260906033037 | 59 | 0 | 0.0 | 2.0 | 0.00 | 0.05 | 0.05 | 94 | 1014.7 |
| 20260906031534 | 58 | 0 | 0.0 | 0.0 | 0.00 | 0.05 | 0.05 | 93 | 1014.6 |
| 20260906030034 | 59 | 0 | 0.0 | 0.0 | 0.00 | 0.05 | 0.05 | 94 | 1014.5 |
| 20260906024536 | 59 | 0 | 0.0 | 0.0 | 0.00 | 0.06 | 0.05 | 92 | 1014.3 |
| 20260906023042 | 59 | 0 | 0.0 | 0.0 | 0.01 | 0.06 | 0.05 | 93 | 1014.2 |
| 20260906021535 | 60 | 0 | 0.0 | 0.0 | 0.01 | 0.06 | 0.05 | 92 | 1014.0 |
| 20260906020036 | 60 | 0 | 0.0 | 0.0 | 0.01 | 0.06 | 0.05 | 92 | 1014.0 |
| 20260906014538 | 61 | 0 | 0.0 | 0.0 | 0.01 | 0.06 | 0.05 | 91 | 1013.7 |
| 20260906013034 | 61 | 0 | 0.0 | 0.0 | 0.00 | 0.05 | 0.04 | 91 | 1013.7 |
| 20260906011532 | 61 | 0 | 0.0 | 0.0 | 0.00 | 0.05 | 0.04 | 91 | 1013.6 |
| 20260906010035 | 62 | 0 | 0.0 | 2.0 | 0.00 | 0.05 | 0.04 | 89 | 1013.5 |
| 20260906004533 | 63 | 0 | 0.0 | 2.0 | 0.00 | 0.05 | 0.04 | 86 | 1013.4 |
| 20260906003035 | 63 | 0 | 0.0 | 2.0 | 0.00 | 0.05 | 0.04 | 86 | 1013.1 |
| 20260906001535 | 64 | 144 | 0.0 | 2.0 | 0.00 | 0.05 | 0.04 | 86 | 1013.0 |
| 20260906000039 | 65 | 144 | 0.0 | 2.0 | 0.00 | 0.05 | 0.04 | 82 | 1012.8 |
| 20260905234535 | 67 | 144 | 1.0 | 2.0 | 0.00 | 0.05 | 0.04 | 79 | 1012.7 |
| 20260905233037 | 70 | 0 | 0.0 | 2.0 | 0.00 | 0.05 | 0.04 | 70 | 1012.7 |
| 20260905231544 | 72 | 0 | 0.0 | 4.0 | 0.00 | 0.05 | 0.04 | 67 | 1012.7 |
| 20260905230034 | 73 | 95 | 1.0 | 7.0 | 0.00 | 0.05 | 0.04 | 65 | 1012.7 |
| 20260905224534 | 74 | 86 | 2.0 | 4.0 | 0.00 | 0.06 | 0.04 | 62 | 1012.5 |
| 20260905223034 | 74 | 59 | 0.0 | 6.0 | 0.00 | 0.06 | 0.04 | 60 | 1012.3 |
| 20260905221538 | 75 | 87 | 2.0 | 8.0 | 0.00 | 0.06 | 0.04 | 60 | 1012.3 |
| 20260905220035 | 76 | 80 | 4.0 | 9.0 | 0.00 | 0.06 | 0.04 | 57 | 1012.2 |
| 20260905214540 | 76 | 89 | 2.0 | 6.0 | 0.00 | 0.06 | 0.04 | 61 | 1012.0 |
| 20260905213037 | 77 | 94 | 1.0 | 8.0 | 0.00 | 0.06 | 0.04 | 56 | 1012.0 |
| 20260905211535 | 77 | 16 | 3.0 | 9.0 | 0.00 | 0.06 | 0.04 | 56 | 1012.1 |
| 20260905210035 | 77 | 85 | 4.0 | 9.0 | 0.01 | 0.06 | 0.04 | 60 | 1011.9 |
| 20260905204535 | 76 | 24 | 1.0 | 8.0 | 0.01 | 0.06 | 0.04 | 61 | 1012.2 |
| 20260905203032 | 77 | 329 | 2.0 | 10.0 | 0.01 | 0.06 | 0.04 | 56 | 1012.1 |
| 20260905201539 | 77 | 59 | 3.0 | 9.0 | 0.01 | 0.06 | 0.04 | 55 | 1011.9 |
| 20260905200034 | 77 | 11 | 2.0 | 6.0 | 0.00 | 0.05 | 0.03 | 63 | 1011.9 |
| 20260905194533 | 75 | 0 | 0.0 | 3.0 | 0.00 | 0.06 | 0.03 | 60 | 1012.1 |
| 20260905193033 | 75 | 81 | 1.0 | 8.0 | 0.00 | 0.06 | 0.03 | 61 | 1012.2 |
| 20260905191533 | 76 | 101 | 2.0 | 8.0 | 0.00 | 0.06 | 0.03 | 61 | 1012.2 |
| 20260905190046 | 76 | 53 | 1.0 | 8.0 | 0.00 | 0.06 | 0.03 | 61 | 1012.3 |
| 20260905184548 | 76 | 352 | 5.0 | 10.0 | 0.00 | 0.06 | 0.03 | 60 | 1012.5 |
| 20260905183032 | 76 | 45 | 3.0 | 9.0 | 0.00 | 0.06 | 0.03 | 65 | 1012.6 |
| 20260905181539 | 74 | 338 | 3.0 | 6.0 | 0.00 | 0.06 | 0.03 | 63 | 1012.7 |
| 20260905180035 | 75 | 71 | 5.0 | 12.0 | 0.00 | 0.06 | 0.03 | 66 | 1012.8 |
| 20260905174544 | 74 | 75 | 4.0 | 8.0 | 0.00 | 0.06 | 0.03 | 69 | 1012.8 |
| 20260905173038 | 73 | 33 | 4.0 | 6.0 | 0.00 | 0.06 | 0.03 | 70 | 1013.1 |
| 20260905171533 | 73 | 290 | 2.0 | 4.0 | 0.00 | 0.06 | 0.03 | 71 | 1013.2 |
| 20260905170033 | 72 | 90 | 1.0 | 8.0 | 0.00 | 0.06 | 0.03 | 73 | 1013.4 |
| 20260905164535 | 72 | 0 | 2.0 | 5.0 | 0.00 | 0.07 | 0.03 | 75 | 1013.6 |
| 20260905163037 | 73 | 146 | 0.0 | 4.0 | 0.00 | 0.07 | 0.03 | 74 | 1013.8 |
| 20260905161534 | 71 | 13 | 3.0 | 7.0 | 0.01 | 0.07 | 0.03 | 75 | 1014.0 |
| 20260905160036 | 71 | 313 | 1.0 | 8.0 | 0.01 | 0.07 | 0.03 | 74 | 1013.9 |
| 20260905154537 | 71 | 282 | 2.0 | 6.0 | 0.01 | 0.07 | 0.03 | 72 | 1013.9 |
| 20260905153033 | 71 | 45 | 1.0 | 7.0 | 0.01 | 0.07 | 0.03 | 75 | 1014.1 |
| 20260905151537 | 70 | 41 | 1.0 | 6.0 | 0.00 | 0.06 | 0.02 | 76 | 1014.3 |
| 20260905150039 | 70 | 115 | 1.0 | 3.0 | 0.00 | 0.06 | 0.02 | 78 | 1014.1 |
| 20260905144540 | 69 | 0 | 0.0 | 4.0 | 0.00 | 0.07 | 0.02 | 79 | 1014.1 |
| 20260905143034 | 69 | 68 | 1.0 | 6.0 | 0.00 | 0.07 | 0.02 | 78 | 1014.0 |
| 20260905141540 | 69 | 84 | 1.0 | 4.0 | 0.00 | 0.07 | 0.02 | 80 | 1013.8 |
| 20260905140033 | 69 | 0 | 1.0 | 5.0 | 0.00 | 0.07 | 0.02 | 83 | 1013.7 |
| 20260905134535 | 69 | 85 | 2.0 | 6.0 | 0.00 | 0.07 | 0.02 | 80 | 1013.6 |
| 20260905133034 | 69 | 5 | 0.0 | 4.0 | 0.00 | 0.07 | 0.02 | 85 | 1013.7 |
| 20260905131546 | 68 | 111 | 0.0 | 4.0 | 0.00 | 0.07 | 0.02 | 83 | 1013.5 |
| 20260905130036 | 68 | 0 | 0.0 | 2.0 | 0.00 | 0.07 | 0.02 | 85 | 1013.5 |
| 20260905124544 | 67 | 84 | 0.0 | 3.0 | 0.00 | 0.08 | 0.02 | 86 | 1013.7 |
| 20260905123047 | 67 | 0 | 0.0 | 2.0 | 0.00 | 0.08 | 0.02 | 89 | 1013.6 |
| 20260905121535 | 66 | 158 | 1.0 | 3.0 | 0.00 | 0.08 | 0.02 | 94 | 1013.4 |
| 20260905120037 | 66 | 158 | 0.0 | 2.0 | 0.00 | 0.08 | 0.02 | 94 | 1013.6 |
| 20260905114541 | 65 | 0 | 0.0 | 1.0 | 0.00 | 0.08 | 0.02 | 94 | 1013.6 |
| 20260905113040 | 65 | 0 | 0.0 | 2.0 | 0.00 | 0.08 | 0.02 | 96 | 1013.7 |
| 20260905111547 | 64 | 158 | 0.0 | 2.0 | 0.01 | 0.08 | 0.02 | 96 | 1013.1 |
| 20260905110033 | 64 | 158 | 1.0 | 2.0 | 0.01 | 0.08 | 0.02 | 95 | 1012.8 |
| 20260905104534 | 64 | 0 | 0.0 | 0.0 | 0.01 | 0.08 | 0.02 | 95 | 1012.8 |
| 20260905103033 | 64 | 0 | 0.0 | 0.0 | 0.01 | 0.08 | 0.02 | 95 | 1012.9 |
| 20260905101539 | 64 | 0 | 0.0 | 2.0 | 0.00 | 0.07 | 0.01 | 94 | 1012.8 |
| 20260905100034 | 64 | 0 | 0.0 | 2.0 | 0.00 | 0.07 | 0.01 | 94 | 1012.7 |
| 20260905094533 | 65 | 0 | 0.0 | 1.0 | 0.00 | 0.08 | 0.01 | 93 | 1012.5 |
| 20260905093034 | 64 | 0 | 0.0 | 1.0 | 0.00 | 0.08 | 0.01 | 92 | 1012.6 |
| 20260905091537 | 65 | 158 | 0.0 | 3.0 | 0.00 | 0.08 | 0.01 | 91 | 1012.7 |
| 20260905090040 | 65 | 121 | 0.0 | 2.0 | 0.00 | 0.08 | 0.01 | 92 | 1012.5 |
| 20260905084557 | 65 | 0 | 0.0 | 6.0 | 0.00 | 0.08 | 0.01 | 90 | 1012.5 |